Regional Weather Roundup
Issued by NWS

Home | Current Version | Previous Version | Text Only | Print | Product List | Glossary Off
Versions: 1 2 3 4 5 6 7 8 9 10 11 12 13 14 15 16 17 18 19 20 21 22 23 24 25 26 27 28 29 30 31 32 33 34 35 36 37 38 39 40 41 42 43 44 45 46 47 48 49 50

000
ASUS43 KOAX 242010
RWRNE

WEATHER ROUNDUP FOR NEBRASKA
NATIONAL WEATHER SERVICE OMAHA NE
200 PM CST WED DEC 24 2014

NOTES: SATELLITE DATA IS BEING USED TO AUGMENT CLOUD COVER ABOVE
       12000 FEET.
       "FAIR" INDICATES FEW OR NO CLOUDS BELOW 12,000 FEET WITH NO
       SIGNIFICANT WEATHER AND/OR OBSTRUCTIONS TO VISIBILITY.

  * THESE STATIONS DO NOT REPORT WEATHER SUCH AS RAIN...SNOW OR FOG.

NEZ001>004-019>022-054>056-242100-
NEBRASKA PANHANDLE

CITY           SKY/WX    TMP DP  RH WIND       PRES   REMARKS
SCOTTSBLUFF    SUNNY     40  24  53 SW6       29.66F
ALLIANCE       MOSUNNY   41  24  51 W14       29.63F
CHADRON        MOSUNNY   36  26  67 S5        29.62F WCI  32
KIMBALL        MOSUNNY   46  24  40 W15G21    29.66F
SIDNEY         SUNNY     36  22  56 SW12      29.69F WCI  28
$$

NEZ057>060-069>072-079>082-242100-
SOUTHWEST NEBRASKA

CITY           SKY/WX    TMP DP  RH WIND       PRES   REMARKS
NORTH PLATTE   SUNNY     41  18  39 W13       29.70F
IMPERIAL       SUNNY     40  21  46 SW12      29.71F WCI  33
LEXINGTON      SUNNY     39  25  57 S12       29.74F WCI  31
MCCOOK         SUNNY     41  18  39 SW10      29.76F
OGALLALA       SUNNY     38  23  54 W10       29.69F WCI  32
$$

NEZ005>010-023>029-035>040-094-242100-
NORTH CENTRAL NEBRASKA

CITY           SKY/WX    TMP DP  RH WIND       PRES   REMARKS
VALENTINE      SUNNY     35  21  56 SW10      29.64F WCI  27
AINSWORTH      SUNNY     34  24  66 SW12      29.64F WCI  25
BROKEN BOW     SUNNY     36  25  64 S10       29.71F WCI  28
O`NEILL        SUNNY     32  25  75 S5        29.71F WCI  27
ORD            SUNNY     36  21  54 SW8       29.72F WCI  30
THEDFORD       SUNNY     38  24  56 SW9       29.66F WCI  32
$$

NEZ041-046>049-061>064-073>077-083>087-242100-
SOUTH CENTRAL NEBRASKA

CITY           SKY/WX    TMP DP  RH WIND       PRES   REMARKS
GRAND ISLAND   SUNNY     38  23  55 W10       29.76F WCI  31
AURORA         SUNNY     37  25  62 W7        29.76F WCI  32
HASTINGS       SUNNY     37  22  54 W13       29.76F WCI  29
HEBRON         MOSUNNY   36  27  71 W8        29.80F WCI  29
HOLDREGE       SUNNY     37  23  56 SW9       29.76F WCI  31
KEARNEY *      SUNNY     37  19  48 SW10      29.76F WCI  30
YORK           SUNNY     36  28  75 W9        29.77F WCI  29
$$

NEZ011>018-030>034-042>045-242100-
NORTHEAST NEBRASKA

CITY           SKY/WX    TMP DP  RH WIND       PRES   REMARKS
NORFOLK        CLOUDY    28  25  88 W7        29.74F WCI  21
ALBION         SUNNY     35  26  69 CALM      29.73F
BLAIR          CLOUDY    29  27  91 W7        29.77F WCI  22
COLUMBUS *     CLOUDY    30  23  74 W5        29.77F WCI  25
FREMONT        CLOUDY    31  29  92 W12       29.78F WCI  21
TEKAMAH        CLOUDY    30  26  85 NW9       29.78F WCI  22
WAYNE          CLOUDY    28  26  93 W9        29.75F WCI  19
$$

NEZ050>053-065>068-078-088>093-242100-
SOUTHEAST NEBRASKA

CITY           SKY/WX    TMP DP  RH WIND       PRES   REMARKS
LINCOLN        CLOUDY    30  26  85 W6        29.81F WCI  24
OMAHA EPPLEY   CLOUDY    31  28  89 NW7       29.79F WCI  24
BEATRICE       CLOUDY    31  28  88 W8        29.80F WCI  23
FALLS CITY     CLOUDY    34  29  82 W13       29.81F WCI  25
NEBRASKA CITY  CLOUDY    32  31  96 NW12      29.79F WCI  23
PLATTSMOUTH    CLOUDY    30  27  87 NW10      29.78F WCI  21
$$

NEZ044-045-051>053-067-242100-
OMAHA AREA

CITY           SKY/WX    TMP DP  RH WIND       PRES   REMARKS
OMAHA EPPLEY   CLOUDY    31  28  89 NW7       29.79F WCI  24
BLAIR          CLOUDY    29  27  91 W7        29.77F WCI  22
FREMONT        CLOUDY    31  29  92 W12       29.78F WCI  21
MILLARD        CLOUDY    31  28  87 NW7       29.79F WCI  24
OFFUTT AFB     CLOUDY    31  28  88 NW9       29.78F WCI  23
PLATTSMOUTH    CLOUDY    30  27  87 NW10      29.78F WCI  21
WAHOO          CLOUDY    30  26  84 W6        29.78F WCI  24
$$


USA.gov is the U.S. government's official web portal to all federal, state and local government web resources and services.